Regional Weather Roundup
Issued by NWS

Home | Current Version | Previous Version | Text Only | Print | Product List | Glossary Off
Versions: 1 2 3 4 5 6 7 8 9 10 11 12 13 14 15 16 17 18 19 20 21 22 23 24 25 26 27 28 29 30 31 32 33 34 35 36 37 38 39 40 41 42 43 44 45 46 47 48 49 50

000
ASUS43 KMKX 200600
RWRWI

WISCONSIN REGIONAL WEATHER ROUNDUP
NATIONAL WEATHER SERVICE MILWAUKEE/SULLIVAN WI
100 AM CDT FRI OCT 20 2017

NOTE: "FAIR" INDICATES FEW OR NO CLOUDS BELOW 12,000 FEET WITH NO
SIGNIFICANT WEATHER AND/OR OBSTRUCTIONS TO VISIBILITY.

WIZ001-002-006>008-014>016-023>028-200700-
NORTHWEST WISCONSIN

CITY           SKY/WX    TMP DP  RH WIND       PRES   REMARKS
SUPERIOR ARPT  FAIR      44  37  76 CALM      29.90F
6HR MIN TEMP:  42; 6HR MAX TEMP:  63;

ASHLAND        FAIR      41  36  82 S6        29.93F
6HR MIN TEMP:  41; 6HR MAX TEMP:  61;

HAYWARD        FAIR      55  37  50 S6        29.96S
6HR MIN TEMP:  53; 6HR MAX TEMP:  60;

SIREN          FAIR      60  39  46 S9        29.93S
CUMBERLAND     FAIR      50  36  57 S5        29.96F
RICE LAKE      FAIR      48  37  66 CALM      29.98F
CHETEK         FAIR      49  39  67 E12       29.97F
LADYSMITH      FAIR      51  37  57 SE5       30.01S
EAU CLAIRE     NOT AVBL
MENOMONIE      FAIR      50  37  61 CALM      29.98F
NEW RICHMOND   FAIR      55  40  58 S7        29.95S
OSCEOLA        FAIR      57  41  54 S6        29.96S
$$

WIZ003>005-009-010-017-018-200700-
NORTH CENTRAL WISCONSIN

CITY           SKY/WX    TMP DP  RH WIND       PRES   REMARKS
MANITOWISH WTR FAIR      47  35  63 S6        30.00S
ARBOR VITAE    FAIR      52  36  54 S7        30.01S
WOODRUFF       FAIR      52  36  54 S7        30.01S
RHINELANDER    FAIR      55  35  47 SW12      30.03S
6HR MIN TEMP:  54; 6HR MAX TEMP:  58;

EAGLE RIVER    FAIR      40  33  74 CALM      30.02S
LAND O LAKES   FAIR      38  34  84 CALM      30.03S
PHILLIPS       FAIR      52  36  53 S6        30.00S
6HR MIN TEMP:  52; 6HR MAX TEMP:  56;

TOMAHAWK       FAIR      46  35  64 CALM      30.04S
MEDFORD        FAIR      46  35  63 S6        30.02F
MERRILL        FAIR      54  35  48 CALM      30.05S
6HR MIN TEMP:  53; 6HR MAX TEMP:  58;

$$

WIZ029-030-035-036-043>047-200700-
CENTRAL WISCONSIN

CITY           SKY/WX    TMP DP  RH WIND       PRES   REMARKS
WAUSAU         FAIR      53  36  52 SE6       30.03F
6HR MIN TEMP:  51; 6HR MAX TEMP:  59;

MOSINEE        FAIR      46  36  66 S8        30.05F
MARSHFIELD     FAIR      47  35  63 S8        30.03S
6HR MIN TEMP:  47; 6HR MAX TEMP:  60;

STEVENS POINT  FAIR      48  34  57 S5        30.06S
WAUPACA        FAIR      51  36  57 S5        30.08S
WAUTOMA        FAIR      42  38  85 CALM      30.08F
6HR MIN TEMP:  41; 6HR MAX TEMP:  61;

WISC RAPIDS    FAIR      51  35  54 S6        30.06S
6HR MIN TEMP:  51; 6HR MAX TEMP:  60;

CAMP DOUGLAS   NOT AVBL
$$

WIZ011>013-019>022-031-037>040-048>050-200700-
NORTHEAST WISCONSIN

CITY           SKY/WX    TMP DP  RH WIND       PRES   REMARKS
ANTIGO         FAIR      47  35  61 S6        30.06S
SHAWANO        FAIR      52  37  56 CALM      30.06S
6HR MIN TEMP:  49; 6HR MAX TEMP:  61;

OCONTO         FAIR      47  36  67 CALM      30.07S
STURGEON BAY   FAIR      53  36  52 S9        30.08F
6HR MIN TEMP:  53; 6HR MAX TEMP:  58;

GREEN BAY      FAIR      48  39  71 S5        30.08S
6HR MIN TEMP:  48; 6HR MAX TEMP:  58;

MANITOWOC      FAIR      48  34  58 S5        30.11S
6HR MIN TEMP:  48; 6HR MAX TEMP:  55;

APPLETON       FAIR      50  32  50 S6        30.07S
CLINTONVILLE   NOT AVBL
OSHKOSH        FAIR      51  38  60 S12       30.08S
6HR MIN TEMP:  50; 6HR MAX TEMP:  56;

$$

WIZ032>034-041-042-053>061-200700-
SOUTHWEST WISCONSIN

CITY           SKY/WX    TMP DP  RH WIND       PRES   REMARKS
LA CROSSE      FAIR      60  43  53 SE9       30.01F
6HR MIN TEMP:  57; 6HR MAX TEMP:  62;

SPARTA         FAIR      61  43  50 S9G16     30.03F
VIROQUA        FAIR      57  43  59 S9        30.05F
6HR MIN TEMP:  56; 6HR MAX TEMP:  60;

BOSCOBEL       FAIR      46  42  86 CALM      30.07F
6HR MIN TEMP:  46; 6HR MAX TEMP:  59;

PRAIRIE DU CHI FAIR      55  42  62 E3        30.05F
PLATTEVILLE    FAIR      54  45  73 SE7       30.09S
$$

WIZ056-057-062-063-064-067-068-200700-
SOUTH CENTRAL WISCONSIN

CITY           SKY/WX    TMP DP  RH WIND       PRES   REMARKS
REEDSBURG      FAIR      56  38  51 S8        30.07S
BARABOO/DELLS  FAIR      55  35  45 S9        30.07F
LONE ROCK      NOT AVBL
MINERAL POINT  FAIR      54  39  58 SE8       30.09S
MADISON        FAIR      54  37  52 S6        30.10S
6HR MIN TEMP:  54; 6HR MAX TEMP:  62;

MIDDLETON      FAIR      55  36  48 S6        30.10F
WATERTOWN      FAIR      49  36  61 CALM      30.11S
MONROE         FAIR      55  36  47 S10       30.10F
JANESVILLE     FAIR      54  36  50 S7        30.11F
$$

WIZ051-052-058>065-066-070>072-200700-
SOUTHEAST WISCONSIN

CITY           SKY/WX    TMP DP  RH WIND       PRES   REMARKS
MILWAUKEE      FAIR      55  27  34 S7        30.13F
6HR MIN TEMP:  53; 6HR MAX TEMP:  58;

WAUKESHA       FAIR      50  28  43 S3        30.14S
MILWAUKEE/TIMM FAIR      50  25  37 S6        30.13F
RACINE         FAIR      56  30  37 S7        30.15S
6HR MIN TEMP:  53; 6HR MAX TEMP:  57;

BURLINGTON     FAIR      43  39  85 CALM      30.13F
KENOSHA        FAIR      51  33  50 S7        30.14S
6HR MIN TEMP:  50; 6HR MAX TEMP:  55;

FOND DU LAC    FAIR      51  34  52 S7        30.09S
6HR MIN TEMP:  50; 6HR MAX TEMP:  58;

SHEBOYGAN      FAIR      45  34  65 S5        30.11S
6HR MIN TEMP:  44; 6HR MAX TEMP:  52;

WEST BEND      FAIR      54  30  40 S8        30.11S
JUNEAU         FAIR      52  35  52 S6        30.11F
$$

LSZ147-162-200700-
LAKE SUPERIOR

STATION/POSITION TIME  TEMP    WIND        PRES    WAVE
                       AIR SEA DIR/SP/G            HT/PER
                 (UTC) (F)     (DEG/KT/KT) (MB)    (FT/S)
W MID LAKE BUOY  0450   56 52              1012.9F   1/ 2
DEVILS ISLAND    0500   61     210/ 10/ 14 1013.0F
SAXON HARBOR     0540   60     190/  7/ 13 1012.9F
$$

LMZ867-665-643>646-200700-
LAKE MICHIGAN

STATION/POSITION TIME  TEMP    WIND        PRES    WAVE
                       AIR SEA DIR/SP/G            HT/PER
                 (UTC) (F)     (DEG/KT/KT) (MB)    (FT/S)
S GREEN BAY BUOY 0530   58 58  180/ 10/ 12 1018.1R
N MID LAKE BUOY  0450   59 58  200/ 16/ 17 1018.8R   4/ 5
NORTHPORT PIER   0540   54     180/  5/ 10 1017.9F
KEWAUNEE LAKESHO 0530   54     190/  9/ 12 1018.2F
SHEBOYGAN LAKESH 0500   58     200/ 16/ 21 1019.3F
PORT WASHINGTON  0530   52     200/  2/  4 1020.7F
ATWATER BUOY     0409   56 53  190/  8/ 10 1020.5S
MILWAUKEE LAKESH 0530   56     220/  6/  7   N/A
S MID LAKE BUOY  0450   62 61  140/ 10/ 12 1021.2S   1/ 3
KENOSHA   LAKESH 0500   58     180/ 10/ 12 1020.7
$$

TC  - TEMPERATURE IN CELSIUS
VSB - VISIBILITY IN STATUTE MILES
WCI - WIND CHILL INDEX
HX  - HEAT INDEX





USA.gov is the U.S. government's official web portal to all federal, state and local government web resources and services.